Location: Banff
(51.1667°N, 115.5667°W)
Time: 11:17:47
(UTC+00:00)

A-11 Canister half - Pass Details

Date: 03 December 2020
Orbit: 1524 x 1684 km, 47.3° (Epoch: 20 January)

Event Time Altitude Azimuth Distance (km) Brightness Sun altitude
Exits shadow 13:18:46 - 235° (SW) 4,137 10.9 -19.2°
Reaches altitude 10° 13:19:24 10° 234° (SW) 3,945 10.8 -19.1°
Maximum altitude 13:29:17 59° 159° (SSE) 1,882 9.6 -17.6°
Drops below altitude 10° 13:38:59 10° 83° (E) 3,885 12.2 -16.1°
Sets 13:42:08 0° 80° (E) 4,853 12.8 -15.6°
